Location: ??????
(55.7522°N, 37.6156°E)
Time: 17:10:06
(UTC+00:00)

ATLAS CENTAUR R/B - Pass Details

Date: 14 June 2025
Orbit: 373 x 497 km, 64.6° (Epoch: 12 July)

Event Time Altitude Azimuth Distance (km) Brightness Sun altitude
Rises 19:46:28 0° 301° (WNW) 2,615 5.8 -7.9°
Reaches altitude 10° 19:49:41 10° 273° (W) 1,716 4.2 -8.1°
Maximum altitude 19:51:23 13° 246° (WSW) 1,544 3.6 -8.2°
Drops below altitude 10° 19:53:05 10° 219° (SW) 1,694 3.5 -8.3°
Enters shadow 19:54:54 - 200° (SSW) 2,127 3.9 -8.4°
